Stations météo

réclame
Mon MeteoGroup
Gardelegen, Allemagne (10359): Température de l'air & dewpoint: 18.05.2019 03:00:00 - 24.05.2019 03:00:00 (CEST)Gardelegen, Allemagne (10359): Température de l'air 5cm & Température de l'air -5cm: 18.05.2019 03:00:00 - 24.05.2019 03:00:00 (CEST)Gardelegen, Allemagne (10359): Température de l'air -20cm & Température de l'air -100cm: 18.05.2019 03:00:00 - 24.05.2019 03:00:00 (CEST)Gardelegen, Allemagne (10359): Vitesse du vent & gusts: 18.05.2019 03:00:00 - 24.05.2019 03:00:00 (CEST)Gardelegen, Allemagne (10359): Direction du vent: 18.05.2019 03:00:00 - 24.05.2019 03:00:00 (CEST)Gardelegen, Allemagne (10359): reduced air pressure: 18.05.2019 03:00:00 - 24.05.2019 03:00:00 (CEST)Gardelegen, Allemagne (10359): visibility: 18.05.2019 03:00:00 - 24.05.2019 03:00:00 (CEST)Gardelegen, Allemagne (10359): Ensoleillement: 18.05.2019 03:00:00 - 24.05.2019 03:00:00 (CEST)Gardelegen, Allemagne (10359): Quantités de précipitations: 18.05.2019 03:00:00 - 24.05.2019 03:00:00 (CEST)
Date & Time tt [°C] td [°C] tt 5cm [°C] tt -5cm [°C] tt -20cm [°C] tt -100cm [°C] ff [km/h] ff [knt] fx [km/h] fx [knt] dd ppp [hPa] vv [km] sd [min] rr [mm]
24.05.2019 03:00:00 7,9 6,3 5,7 12,3 17,4 13,8 4 2 5 3 SW 1016,1 44 0 0,0
24.05.2019 02:00:00 8,0 7,1 5,6 13,1 18,1 13,8 3 1 3 2 WSW 1016,5 30 0 0,0
24.05.2019 01:00:00 8,6 7,2 6,5 14,1 18,8 13,8 3 1 3 2 W 1016,8 39 0 0,0
24.05.2019 00:00:00 9,5 7,8 7,1 15,4 19,5 13,8 0 0 4 2 N 1017,2 44 0 0,0
23.05.2019 23:00:00 11,2 8,6 8,7 16,9 20,3 13,8 3 2 5 3 WNW 1017,1 65 0 0,0
23.05.2019 22:00:00 13,1 8,7 10,5 18,8 21,0 13,9 2 1 4 2 SSW 1017,3 70 0 0,0
23.05.2019 21:00:00 16,5 7,5 13,5 21,2 21,5 13,9 0 0 5 3 N 1017,0 70 0 0,0
23.05.2019 20:00:00 19,4 4,5 18,3 23,6 21,9 13,9 2 1 7 4 WSW 1017,0 70 26 0,0
23.05.2019 19:00:00 19,6 4,0 19,5 25,4 22,0 13,9 4 2 9 5 N 1017,3 70 20 0,0
23.05.2019 18:00:00 20,3 4,2 21,9 27,1 21,9 13,9 3 2 11 6 N 1017,3 70 26 0,0
23.05.2019 17:00:00 19,8 4,3 21,6 29,9 21,4 13,9 6 4 18 10 N 1017,7 70 41 0,0
23.05.2019 16:00:00 20,6 4,8 26,2 32,4 20,2 13,9 7 4 16 9 NNW 1017,9 24 60 0,0
23.05.2019 15:00:00 19,7 4,5 28,2 31,2 18,9 14,0 11 6 21 12 W 1018,4 35 60 0,0
23.05.2019 14:00:00 19,9 5,0 25,1 29,7 17,5 14,0 9 5 26 14 N 1018,9 28 59 0,0
23.05.2019 13:00:00 18,0 4,4 22,8 28,1 15,9 14,0 4 2 17 9 E 1019,3 25 60 0,0
23.05.2019 12:00:00 17,0 5,6 23,6 25,3 14,5 14,0 4 2 14 8 WNW 1019,7 33 60 0,0
23.05.2019 11:00:00 15,4 6,0 22,2 21,1 13,4 14,0 8 4 19 10 NW 1020,0 48 60 0,0
23.05.2019 10:00:00 13,5 7,1 19,1 17,3 12,6 14,0 8 5 16 8 W 1020,1 26 60 0,0
23.05.2019 09:00:00 11,4 7,4 16,1 14,5 12,0 14,0 8 4 12 7 W 1020,1 20 60 0,0
23.05.2019 08:00:00 9,6 7,6 11,3 11,2 11,8 14,0 5 3 8 4 SSW 1020,0 17 59 0,0
23.05.2019 07:00:00 6,0 5,4 6,6 8,0 12,0 14,0 3 2 4 2 SSW 1019,6 14 19 0,0
23.05.2019 06:00:00 4,2 4,0 2,4 7,1 12,4 14,0 0 0 4 2 N 1019,4 8 0 0,0
23.05.2019 05:00:00 4,0 3,8 2,8 7,3 12,8 14,1 3 1 5 3 SW 1019,7 10 0 0,0
23.05.2019 04:00:00 4,2 3,9 2,6 7,7 13,3 14,1 4 2 4 2 SSW 1019,7 9 0 0,0
23.05.2019 03:00:00 5,1 4,8 2,5 8,4 13,8 14,1 4 2 4 2 S 1019,6 11 0 0,0
23.05.2019 02:00:00 5,8 5,4 3,6 9,1 14,3 14,1 3 2 5 3 S 1019,5 17 0 0,0
23.05.2019 01:00:00 6,4 5,5 3,9 9,9 14,8 14,1 2 1 3 2 SSW 1019,3 24 0 0,0
23.05.2019 00:00:00 8,6 6,2 4,7 10,8 15,3 14,1 2 1 8 4 W 1019,0 60 0 0,0
22.05.2019 23:00:00 10,0 6,9 5,5 11,9 15,8 14,1 6 3 11 6 W 1018,7 64 0 0,0
22.05.2019 22:00:00 11,7 6,6 8,4 13,3 16,2 14,1 6 4 15 8 WNW 1018,4 70 0 0,0
22.05.2019 21:00:00 13,7 6,6 11,9 15,3 16,4 14,1 11 6 26 14 NW 1017,8 70 44 0,0
22.05.2019 20:00:00 15,3 6,9 14,9 17,6 16,3 14,1 17 9 32 17 WNW 1017,3 30 56 0,0
22.05.2019 19:00:00 15,2 7,3 16,4 18,7 16,1 14,1 18 10 39 21 WNW 1017,1 19 28 0,0
22.05.2019 18:00:00 14,8 7,9 16,5 17,3 15,8 14,0 17 9 37 20 WNW 1016,9 52 0 0,0
22.05.2019 17:00:00 14,8 8,5 17,1 17,2 15,6 14,0 20 11 36 19 WNW 1016,8 34 1 0,0
22.05.2019 16:00:00 13,8 8,9 15,3 16,4 15,5 14,0 19 10 34 18 WNW 1016,8 44 0 0,0
22.05.2019 15:00:00 12,5 9,1 13,3 14,8 15,5 14,0 21 11 37 20 WNW 1016,7 32 0 0,0
22.05.2019 14:00:00 12,2 9,4 12,8 14,7 15,5 14,0 19 11 37 20 WNW 1016,5 21 0 0,0
22.05.2019 13:00:00 12,1 9,3 13,5 14,5 15,5 14,0 19 10 37 20 WNW 1016,1 19 0 0,0
22.05.2019 12:00:00 12,0 9,3 12,9 14,2 15,6 14,0 19 10 42 23 WNW 1015,5 21 0 0,0
22.05.2019 11:00:00 12,0 9,4 12,4 14,1 15,7 14,0 19 10 36 19 WNW 1015,1 16 0 0,0
22.05.2019 10:00:00 11,9 9,2 12,6 13,8 15,8 13,9 17 9 37 20 NW 1014,6 19 0 0,0
22.05.2019 09:00:00 11,5 9,2 12,0 13,4 16,1 13,9 16 8 29 16 WNW 1014,2 16 0 0,0
22.05.2019 08:00:00 11,2 9,4 11,4 13,4 16,4 13,9 16 9 33 18 WNW 1013,8 16 0 0,0
22.05.2019 07:00:00 11,0 9,7 11,2 13,5 16,7 13,9 17 9 36 19 WNW 1013,4 13 0 0,0
22.05.2019 06:00:00 11,2 10,2 11,3 13,9 17,1 13,8 16 8 35 19 WNW 1012,8 8 0 0,0
22.05.2019 05:00:00 11,5 10,5 11,6 14,3 17,4 13,8 15 8 31 17 WNW 1012,3 6 0 0,0
22.05.2019 04:00:00 11,9 10,7 12,1 14,8 17,8 13,8 14 8 34 18 W 1012,1 8 0 0,0
22.05.2019 03:00:00 12,6 11,4 12,7 15,3 18,2 13,8 17 9 32 17 WNW 1011,6 9 0 0,0
22.05.2019 02:00:00 13,2 11,7 13,2 15,8 18,6 13,8 17 9 28 15 WNW 1011,3 13 0 0,0
22.05.2019 01:00:00 13,6 11,9 13,5 16,3 19,1 13,7 11 6 25 13 WNW 1011,2 19 0 0,0
22.05.2019 00:00:00 13,8 12,1 13,8 16,9 19,6 13,7 12 6 23 12 WNW 1011,0 17 0 0,0
21.05.2019 23:00:00 14,1 12,3 14,3 17,4 20,2 13,7 11 6 30 16 WNW 1010,7 11 0 0,0
21.05.2019 22:00:00 14,3 13,3 14,3 18,4 20,7 13,7 15 8 27 15 WNW 1010,5 6 0 0,0
21.05.2019 21:00:00 15,1 14,1 15,2 19,6 21,3 13,7 13 7 29 16 WNW 1009,7 10 0 0,0
21.05.2019 20:00:00 16,1 14,0 16,6 21,4 21,7 13,7 16 9 26 14 WNW 1009,1 16 0 0,0
21.05.2019 19:00:00 17,7 14,0 18,8 23,4 21,9 13,7 13 7 32 17 NW 1008,2 31 21 0,0
21.05.2019 18:00:00 20,0 14,4 22,5 25,6 22,0 13,6 18 10 32 17 NW 1007,5 31 30 0,0
21.05.2019 17:00:00 20,2 14,2 21,5 25,5 22,0 13,6 15 8 25 13 NW 1007,1 32 0 0,0
21.05.2019 16:00:00 21,1 14,1 24,1 27,9 21,5 13,6 14 7 26 14 NW 1006,8 26 8 0,0
21.05.2019 15:00:00 22,5 13,5 28,2 30,0 20,6 13,6 11 6 23 12 NNW 1006,3 43 46 0,0
21.05.2019 14:00:00 21,3 13,0 28,7 26,9 19,8 13,6 8 4 15 8 W 1006,3 35 29 0,0
21.05.2019 13:00:00 21,2 12,5 25,7 26,8 18,9 13,6 4 2 15 8 N 1006,2 45 40 0,0
21.05.2019 12:00:00 19,5 13,7 22,1 24,9 18,1 13,6 10 5 16 9 NNW 1005,9 24 43 0,0
21.05.2019 11:00:00 18,3 12,7 24,3 21,9 17,5 13,5 4 2 15 8 N 1005,8 17 21 0,0
21.05.2019 10:00:00 17,0 13,2 17,9 20,6 17,0 13,5 7 4 16 9 N 1005,6 18 33 0,0
21.05.2019 09:00:00 16,5 13,5 17,5 17,8 16,8 13,5 6 3 13 7 N 1004,9 14 9 0,0
21.05.2019 08:00:00 15,2 13,2 15,1 16,7 16,8 13,5 6 4 13 7 NNE 1004,6 11 0 0,0
21.05.2019 07:00:00 14,7 13,7 14,5 15,8 17,0 13,4 4 2 14 8 NNE 1004,2 7 0 0,0
21.05.2019 06:00:00 14,5 14,0 13,9 15,2 17,3 13,4 4 2 10 5 NNE 1003,8 4,7 0 0,0
21.05.2019 05:00:00 14,9 14,2 13,7 15,8 17,6 13,4 4 2 15 8 NE 1003,3 4,9 0 0,0
21.05.2019 04:00:00 15,8 14,8 15,4 16,7 17,8 13,4 7 4 18 10 NNE 1003,2 8 0 0,0
21.05.2019 03:00:00 16,0 14,9 15,4 16,8 18,1 13,4 6 4 24 13 NNE 1002,9 9 0 0,0
21.05.2019 02:00:00 16,2 14,9 15,6 17,1 18,4 13,3 11 6 22 12 N 1002,4 12 0 0,0
21.05.2019 01:00:00 16,6 15,2 15,9 17,4 18,6 13,3 8 5 26 14 NNE 1002,3 13 0 0,0
21.05.2019 00:00:00 16,9 15,7 16,2 17,6 19,0 13,3 10 6 28 15 NNE 1002,3 9 0 0,2
20.05.2019 23:00:00 17,4 15,6 16,6 17,8 19,4 13,3 10 5 16 9 N 1002,2 11 0 0,0
20.05.2019 22:00:00 17,3 14,8 15,8 18,3 19,9 13,3 7 4 25 13 NNE 1001,9 16 0 0,0
20.05.2019 21:00:00 17,9 14,8 16,5 19,2 20,3 13,3 10 5 26 14 NNE 1002,3 23 0 0,9
20.05.2019 20:00:00 18,3 16,5 17,3 20,1 20,8 13,2 7 4 13 7 N 1002,1 6 0 2,3
20.05.2019 19:00:00 18,3 16,5 17,5 21,4 21,2 13,2 5 3 10 5 ENE 1002,2 7 0 0,3
20.05.2019 18:00:00 18,0 15,7 17,9 22,2 21,7 13,2 5 3 15 8 S 1001,9 23 0 0,4
20.05.2019 17:00:00 19,2 14,6 17,4 24,7 21,8 13,2 10 5 27 14 NNE 1002,0 28 0 1,2
20.05.2019 16:00:00 24,0 12,3 24,5 27,8 21,4 13,2 10 5 28 15 NE 1001,9 44 7 0,0
20.05.2019 15:00:00 25,4 11,8 29,0 30,9 20,3 13,2 12 6 27 15 NNE 1002,5 25 40 0,0
20.05.2019 14:00:00 24,8 13,0 29,5 30,4 19,0 13,2 14 8 31 17 N 1003,0 22 54 0,0
20.05.2019 13:00:00 23,6 13,7 27,7 28,8 17,6 13,1 11 6 27 14 N 1003,3 18 60 0,0
20.05.2019 12:00:00 21,5 14,5 26,9 25,1 16,6 13,1 10 5 22 12 N 1003,9 16 60 0,0
20.05.2019 11:00:00 17,6 14,1 21,1 20,0 16,1 13,1 9 5 20 11 N 1004,2 11 22 0,0
20.05.2019 10:00:00 15,2 13,1 16,5 17,6 15,8 13,1 11 6 21 11 N 1004,7 8 0 0,0
20.05.2019 09:00:00 14,4 12,7 15,7 16,2 15,7 13,0 8 4 19 10 N 1004,6 7 0 0,0
20.05.2019 08:00:00 13,8 12,5 14,2 15,1 15,7 13,0 10 5 17 9 N 1004,3 7 0 0,0
20.05.2019 07:00:00 13,4 12,2 12,9 14,2 15,9 13,0 6 4 18 10 NNE 1004,2 8 0 0,0
20.05.2019 06:00:00 13,0 12,2 12,3 13,6 16,1 13,0 6 3 15 8 N 1004,1 7 0 0,0
20.05.2019 05:00:00 13,2 12,4 12,4 13,4 16,5 12,9 5 3 15 8 NNE 1004,3 7 0 0,0
20.05.2019 04:00:00 11,9 11,1 10,2 13,2 17,0 12,9 4 2 9 5 NE 1004,4 7 0 0,0
20.05.2019 03:00:00 12,2 10,7 10,0 13,7 17,5 12,9 4 2 8 4 NE 1004,4 15 0 0,0
20.05.2019 02:00:00 14,0 11,0 11,2 14,4 18,0 12,8 5 3 10 6 NNE 1004,2 25 0 0,0
20.05.2019 01:00:00 12,5 11,9 10,5 15,2 18,6 12,8 2 1 6 3 NNW 1004,6 11 0 0,0
20.05.2019 00:00:00 13,7 12,2 11,6 16,0 19,2 12,8 4 2 8 4 N 1004,8 23 0 0,0
19.05.2019 23:00:00 16,0 11,5 12,7 17,0 19,8 12,8 5 3 9 5 N 1004,6 38 0 0,0
19.05.2019 22:00:00 18,3 11,1 15,5 18,2 20,5 12,8 4 2 12 6 NE 1004,4 45 0 0,0
19.05.2019 21:00:00 19,7 11,6 17,5 19,8 21,1 12,8 5 3 14 8 ENE 1004,1 40 12 0,0
19.05.2019 20:00:00 20,9 10,1 19,0 21,6 21,6 12,7 8 4 23 12 ENE 1003,9 62 0 0,3
19.05.2019 19:00:00 22,3 12,0 17,8 26,1 21,6 12,7 16 9 34 18 E 1003,5 34 33 0,3
19.05.2019 18:00:00 25,2 7,9 25,4 26,7 21,5 12,7 10 5 25 14 ESE 1003,6 56 29 0,0
19.05.2019 17:00:00 24,3 8,4 24,4 27,4 21,2 12,7 16 9 26 14 ENE 1004,0 46 11 0,0
19.05.2019 16:00:00 24,6 7,9 25,8 30,2 20,5 12,7 16 8 27 14 ESE 1004,3 42 47 0,0
19.05.2019 15:00:00 24,3 7,6 26,0 28,4 19,7 12,7 16 9 30 16 ENE 1004,6 48 40 0,0
19.05.2019 14:00:00 23,8 8,4 25,7 26,9 19,0 12,7 14 8 29 16 ENE 1004,9 41 16 0,0
19.05.2019 13:00:00 23,6 8,2 25,2 27,8 17,9 12,6 16 9 32 17 E 1005,0 31 41 0,0
19.05.2019 12:00:00 23,2 8,5 25,4 26,0 16,8 12,6 16 9 35 19 ENE 1005,3 39 46 0,0
19.05.2019 11:00:00 22,5 8,5 24,3 24,8 15,6 12,6 14 8 28 15 ENE 1005,7 28 59 0,0
19.05.2019 10:00:00 21,7 8,9 24,1 21,1 14,7 12,6 13 7 22 12 ESE 1006,1 27 60 0,0
19.05.2019 09:00:00 17,9 11,1 21,5 17,3 14,2 12,5 5 3 9 5 N 1006,5 25 54 0,0
19.05.2019 08:00:00 13,2 9,3 14,4 13,7 14,2 12,5 3 2 6 3 NNE 1006,7 15 56 0,0
19.05.2019 07:00:00 8,6 7,7 8,5 11,2 14,5 12,5 0 0 2 1 N 1007,0 12 15 0,0
19.05.2019 06:00:00 7,2 6,9 6,8 10,6 14,9 12,4 0 0 2 1 N 1006,7 6 0 0,0
19.05.2019 05:00:00 7,1 6,8 5,5 11,0 15,5 12,4 0 0 3 2 N 1006,6 7 0 0,0
19.05.2019 04:00:00 7,8 7,4 5,7 11,6 16,0 12,4 0 0 2 1 N 1006,7 10 0 0,0
19.05.2019 03:00:00 8,3 8,1 5,9 12,3 16,6 12,4 0 0 2 1 N 1006,8 8 0 0,0
19.05.2019 02:00:00 8,8 8,4 7,0 13,2 17,3 12,4 0 0 3 2 N 1007,1 6 0 0,0
19.05.2019 01:00:00 9,5 9,0 7,7 14,1 17,9 12,3 1 0 2 1 SSW 1007,3 10 0 0,0
19.05.2019 00:00:00 10,6 9,6 8,5 15,2 18,6 12,3 0 0 4 2 N 1007,4 16 0 0,0
18.05.2019 23:00:00 12,2 9,8 9,6 16,6 19,3 12,3 0 0 4 2 N 1007,2 37 0 0,0
18.05.2019 22:00:00 14,6 10,4 11,1 18,4 20,0 12,3 0 0 6 3 N 1007,1 47 0 0,0
18.05.2019 21:00:00 19,1 9,0 15,3 20,8 20,4 12,3 5 3 16 9 SSE 1006,6 68 37 0,0
18.05.2019 20:00:00 21,2 8,3 20,2 23,2 20,6 12,3 10 5 20 11 SSE 1006,3 58 60 0,0
18.05.2019 19:00:00 21,7 7,4 22,0 25,3 20,6 12,3 13 7 22 12 S 1006,2 26 60 0,0
18.05.2019 18:00:00 22,1 7,4 23,1 26,5 20,3 12,3 13 7 24 13 SE 1006,1 39 47 0,0
18.05.2019 17:00:00 21,8 7,5 23,8 26,8 19,9 12,3 11 6 21 12 ESE 1006,4 63 25 0,0
18.05.2019 16:00:00 22,0 7,4 26,9 28,2 19,3 12,3 12 6 24 13 SSE 1006,7 32 41 0,0
18.05.2019 15:00:00 20,5 8,1 22,0 27,4 18,5 12,3 11 6 28 15 ESE 1007,1 55 22 0,0
18.05.2019 14:00:00 21,3 8,5 24,2 28,4 17,3 12,3 10 5 26 14 ESE 1007,2 43 36 0,0
18.05.2019 13:00:00 20,2 8,2 22,8 27,6 16,0 12,3 15 8 29 16 ENE 1007,4 37 55 0,0
18.05.2019 12:00:00 19,5 7,9 22,8 25,1 14,8 12,3 14 8 32 17 E 1007,9 33 59 0,0
18.05.2019 11:00:00 18,5 9,1 21,8 21,8 13,7 12,3 8 5 23 12 E 1008,2 28 58 0,0
18.05.2019 10:00:00 17,0 9,3 19,7 18,6 12,9 12,2 9 5 20 11 E 1008,5 27 60 0,0
18.05.2019 09:00:00 15,5 9,6 17,7 15,7 12,3 12,2 10 5 19 10 SE 1008,5 22 60 0,0
18.05.2019 08:00:00 13,9 10,2 13,6 12,5 12,2 12,2 4 2 8 5 E 1008,4 14 60 0,0
18.05.2019 07:00:00 10,5 9,7 8,8 9,2 12,4 12,2 3 2 6 4 NE 1008,6 9 60 0,0
18.05.2019 06:00:00 7,5 7,1 5,4 9,1 12,8 12,2 3 2 7 4 NNE 1008,5 3,3 7 0,0
18.05.2019 05:00:00 8,0 7,7 5,5 9,7 13,2 12,2 4 2 10 5 N 1008,6 3,7 0 0,0
18.05.2019 04:00:00 11,4 10,1 8,7 10,5 13,6 12,2 4 2 18 10 E 1008,6 14 0 0,0
18.05.2019 03:00:00 11,7 10,2 9,9 10,9 13,9 12,2 7 4 14 7 E 1008,8 16 0 0,0

tt = Température de l'air
td = dewpoint
tt 5cm = Température de l'air 5cm
tt -5cm = Température de l'air -5cm
tt -20cm = Température de l'air -20cm
tt -100cm = Température de l'air -100cm
ff = Vitesse du vent
fx = gusts
dd = Direction du vent
ppp = reduced air pressure
vv = visibility
sd = Ensoleillement
rr = Quantités de précipitations

stations d'obs. à proximité